Tillbaka till svenska Fidonet
English   Information   Debug  
FILM   0/18
FNEWS_PUBLISH   4851
FN_SYSOP   42078
FN_SYSOP_OLD1   71952
FTP_FIDO   0/2
FTSC_PUBLIC   0/13916
FUNNY   0/4886
GENEALOGY.EUR   0/71
GET_INFO   105
GOLDED   0/408
HAM   1277/16594
HOLYSMOKE   0/6791
HOT_SITES   0/1
HTMLEDIT   0/71
HUB203   466
HUB_100   264
HUB_400   39
HUMOR   0/29
IC   0/2851
INTERNET   0/424
INTERUSER   0/3
IP_CONNECT   719
JAMNNTPD   0/233
JAMTLAND   0/47
KATTY_KORNER   0/41
LAN   0/16
LINUX-USER   0/19
LINUXHELP   0/1155
LINUX   0/22279
LINUX_BBS   0/957
mail   18.68
mail_fore_ok   249
MENSA   0/341
MODERATOR   0/102
MONTE   0/992
MOSCOW_OKLAHOMA   0/1245
MUFFIN   0/783
MUSIC   0/321
N203_STAT   938
N203_SYSCHAT   313
NET203   321
NET204   69
NET_DEV   0/10
NORD.ADMIN   0/101
NORD.CHAT   0/2572
NORD.FIDONET   189
NORD.HARDWARE   0/28
NORD.KULTUR   0/114
NORD.PROG   0/32
NORD.SOFTWARE   0/88
NORD.TEKNIK   0/58
NORD   0/453
OCCULT_CHAT   0/93
OS2BBS   0/787
OS2DOSBBS   0/580
OS2HW   0/42
OS2INET   0/37
OS2LAN   0/134
OS2PROG   0/36
OS2REXX   0/113
OS2USER-L   207
OS2   0/4823
OSDEBATE   2767/18996
PASCAL   0/490
PERL   0/457
PHP   0/45
POINTS   0/405
POLITICS   0/29554
POL_INC   0/14731
PSION   103
R20_ADMIN   1133
R20_AMATORRADIO   0/2
R20_BEST_OF_FIDONET   16
R20_CHAT   0/896
R20_DEPP   0/3
R20_DEV   400
R20_ECHO2   1762
R20_ECHOPRES   0/35
R20_ESTAT   0/719
R20_FIDONETPROG...
...RAM.MYPOINT
  0/2
R20_FIDONETPROGRAM   0/22
R20_FIDONET   0/248
R20_FILEFIND   0/24
R20_FILEFOUND   0/22
R20_HIFI   0/3
R20_INFO2   3654
R20_INTERNET   0/12940
R20_INTRESSE   0/60
R20_INTR_KOM   0/99
R20_KANDIDAT.CHAT   42
R20_KANDIDAT   28
R20_KOM_DEV   112
R20_KONTROLL   0/13360
R20_KORSET   0/18
R20_LOKALTRAFIK   0/24
R20_MODERATOR   0/1852
R20_NC   76
R20_NET200   245
R20_NETWORK.OTH...
...ERNETS
  0/13
R20_OPERATIVSYS...
...TEM.LINUX
  0/44
R20_PROGRAMVAROR   0/1
R20_REC2NEC   534
R20_SFOSM   0/341
R20_SF   0/108
R20_SPRAK.ENGLISH   0/1
R20_SQUISH   107
R20_TEST   2
R20_WORST_OF_FIDONET   20
RAR   0/9
RA_MULTI   106
RA_UTIL   0/162
REGCON.EUR   0/2067
REGCON   0/13
SCIENCE   0/1206
SF   0/239
SHAREWARE_SUPPORT   0/5146
SHAREWRE   0/14
SIMPSONS   0/169
STATS_OLD1   0/2539.065
STATS_OLD2   0/2530
STATS_OLD3   0/2395.095
STATS_OLD4   0/1692.25
SURVIVOR   0/495
SYSOPS_CORNER   0/3
SYSOP   0/84
TAGLINES   0/112
TEAMOS2   0/4530
TECH   0/2617
TEST.444   0/105
TRAPDOOR   0/19
TREK   0/755
TUB   0/290
UFO   0/40
UNIX   0/1316
USA_EURLINK   0/102
USR_MODEMS   0/1
VATICAN   0/2740
VIETNAM_VETS   0/14
VIRUS   0/378
VIRUS_INFO   0/201
VISUAL_BASIC   0/473
WHITEHOUSE   0/5187
WIN2000   0/101
WIN32   0/30
WIN95   0/4291
WIN95_OLD1   0/70272
WINDOWS   0/1517
WWB_SYSOP   0/419
WWB_TECH   0/810
ZCC-PUBLIC   0/1
ZEC   4

 
4DOS   0/134
ABORTION   0/7
ALASKA_CHAT   0/506
ALLFIX_FILE   0/1313
ALLFIX_FILE_OLD1   0/7997
ALT_DOS   0/152
AMATEUR_RADIO   0/1039
AMIGASALE   0/14
AMIGA   0/331
AMIGA_INT   0/1
AMIGA_PROG   0/20
AMIGA_SYSOP   0/26
ANIME   0/15
ARGUS   0/924
ASCII_ART   0/340
ASIAN_LINK   0/651
ASTRONOMY   0/417
AUDIO   0/92
AUTOMOBILE_RACING   0/105
BABYLON5   0/17862
BAG   135
BATPOWER   0/361
BBBS.ENGLISH   0/382
BBSLAW   0/109
BBS_ADS   0/5290
BBS_INTERNET   0/507
BIBLE   0/3563
BINKD   0/1119
BINKLEY   0/215
BLUEWAVE   0/2173
CABLE_MODEMS   0/25
CBM   0/46
CDRECORD   0/66
CDROM   0/20
CLASSIC_COMPUTER   0/378
COMICS   0/15
CONSPRCY   0/899
COOKING   40756
COOKING_OLD1   15443/24719
COOKING_OLD2   0/40862
COOKING_OLD3   0/37489
COOKING_OLD4   0/35496
COOKING_OLD5   9370
C_ECHO   0/189
C_PLUSPLUS   0/31
DIRTY_DOZEN   0/201
DOORGAMES   0/2234
DOS_INTERNET   0/196
duplikat   6102
ECHOLIST   0/18295
EC_SUPPORT   0/318
ELECTRONICS   0/359
ELEKTRONIK.GER   1534
ENET.LINGUISTIC   0/13
ENET.POLITICS   0/4
ENET.SOFT   0/11701
ENET.SYSOP   34240
ENET.TALKS   0/32
ENGLISH_TUTOR   0/2000
EVOLUTION   0/1335
FDECHO   0/217
FDN_ANNOUNCE   250/7068
FIDONEWS   24878
FIDONEWS_OLD1   0/49742
FIDONEWS_OLD2   0/35949
FIDONEWS_OLD3   0/30874
FIDONEWS_OLD4   36152/37224
FIDO_SYSOP   12919
FIDO_UTIL   0/180
FILEFIND   0/209
FILEGATE   0/212
Möte HAM, 16594 texter
 lista första sista föregående nästa
Text 3758, 880 rader
Skriven 2010-06-26 23:30:21 av Amsat List (1:323/120.0)
Ärende: [keps]  orb10177.amsa
=============================
[keps]  orb10177.amsa

Return-Path: <keps-bounces@amsat.org>
X-Rcpt: craig.healy@chowda.com
X-UIDL: 1277607778.12209

SB KEPS @ AMSAT  $ORB10177.O
Orbital Elements  10177.OSCAR

HR AMSAT ORBITAL ELEMENTS FOR OSCAR SATELLITES
FROM WA5QGD FORT WORTH,TX June 26, 2010
Send Subscribe/unsubscribe to KEPS at http://www.amsat.org/mailman/listinfo/kep
BID: ORB10177.O
TO ALL RADIO AMATEURS BT

Satellite: VO-52
Catalog number: 28650
Epoch time:      10176.64188221
Element set:     536
Inclination:      097.6922 deg
RA of node:       229.7469 deg
Eccentricity:    0.0025887
Arg of perigee:   248.0228 deg
Mean anomaly:     111.8282 deg
Mean motion:   14.81762480 rev/day
Decay rate:       1.01e-06 rev/day^2
Epoch rev:           27794
Checksum:              324

Satellite: FO-29
Catalog number: 24278
Epoch time:      10176.90548086
Element set:     338
Inclination:      098.5142 deg
RA of node:       004.8313 deg
Eccentricity:    0.0351407
Arg of perigee:   101.2054 deg
Mean anomaly:     262.8804 deg
Mean motion:   13.52951551 rev/day
Decay rate:        5.9e-07 rev/day^2
Epoch rev:           68428
Checksum:              304

Satellite: AO-07
Catalog number: 07530
Epoch time:      10177.61978581
Element set:     811
Inclination:      101.3998 deg
RA of node:       193.1193 deg
Eccentricity:    0.0011577
Arg of perigee:   256.3809 deg
Mean anomaly:     103.5976 deg
Mean motion:   12.53578630 rev/day
Decay rate:       -2.7e-07 rev/day^2
Epoch rev:           62963
Checksum:              323

Satellite: RS-22
Catalog number: 27939
Epoch time:      10177.62783171
Element set:     308
Inclination:      097.8928 deg
RA of node:       042.7139 deg
Eccentricity:    0.0014285
Arg of perigee:   034.0624 deg
Mean anomaly:     326.1484 deg
Mean motion:   14.63428727 rev/day
Decay rate:        8.9e-07 rev/day^2
Epoch rev:           36033
Checksum:              319

Satellite: HO-68
Catalog number: 36122
Epoch time:      10177.67315392
Element set:     432
Inclination:      100.4690 deg
RA of node:       238.0071 deg
Eccentricity:    0.0007171
Arg of perigee:   317.1300 deg
Mean anomaly:     042.9258 deg
Mean motion:   13.16280989 rev/day
Decay rate:       -4.5e-07 rev/day^2
Epoch rev:            2546
Checksum:              276

Satellite: SO-67
Catalog number: 35870
Epoch time:      10177.73028628
Element set:     855
Inclination:      097.3315 deg
RA of node:       226.6139 deg
Eccentricity:    0.0004731
Arg of perigee:   072.6482 deg
Mean anomaly:     067.7355 deg
Mean motion:   15.20931343 rev/day
Decay rate:       4.75e-06 rev/day^2
Epoch rev:            4290
Checksum:              312

Satellite: SO-33
Catalog number: 25509
Epoch time:      10177.83496445
Element set:     741
Inclination:      031.4322 deg
RA of node:       093.9523 deg
Eccentricity:    0.0353535
Arg of perigee:   014.2044 deg
Mean anomaly:     346.8248 deg
Mean motion:   14.28311109 rev/day
Decay rate:       2.25e-06 rev/day^2
Epoch rev:           60943
Checksum:              289

/EX
SB KEPS @ AMSAT  $ORB10177.D
Orbital Elements  10177.MICROS

HR AMSAT ORBITAL ELEMENTS FOR THE MICROSATS
FROM WA5QGD FORT WORTH,TX June 26, 2010
Send Subscribe/unsubscribe to KEPS at http://www.amsat.org/mailman/listinfo/kep
BID: ORB10177.D
TO ALL RADIO AMATEURS BT

Satellite: AO-51
Catalog number: 28375
Epoch time:      10176.48316237
Element set:    0709
Inclination:      098.0623 deg
RA of node:       169.5063 deg
Eccentricity:    0.0085130
Arg of perigee:   071.8642 deg
Mean anomaly:     289.1796 deg
Mean motion:   14.40688769 rev/day
Decay rate:        1.2e-07 rev/day^2
Epoch rev:           31470
Checksum:              323

Satellite: CP3
Catalog number: 31129
Epoch time:      10176.62130615
Element set:    0611
Inclination:      097.9397 deg
RA of node:       215.7422 deg
Eccentricity:    0.0102215
Arg of perigee:   206.4355 deg
Mean anomaly:     153.1628 deg
Mean motion:   14.52269050 rev/day
Decay rate:       -5.6e-07 rev/day^2
Epoch rev:           16908
Checksum:              275

Satellite: UO-11
Catalog number: 14781
Epoch time:      10176.67732049
Element set:     275
Inclination:      098.0557 deg
RA of node:       228.4450 deg
Eccentricity:    0.0008483
Arg of perigee:   205.6021 deg
Mean anomaly:     154.4688 deg
Mean motion:   14.79810835 rev/day
Decay rate:       -5.1e-07 rev/day^2
Epoch rev:           41306
Checksum:              302

Satellite: SOHLA-1
Catalog number: 33496
Epoch time:      10176.80849277
Element set:     137
Inclination:      098.0584 deg
RA of node:       285.7717 deg
Eccentricity:    0.0006755
Arg of perigee:   166.9238 deg
Mean anomaly:     193.2158 deg
Mean motion:   14.69499246 rev/day
Decay rate:       -9.3e-07 rev/day^2
Epoch rev:            7614
Checksum:              351

Satellite: GO-32
Catalog number: 25397
Epoch time:      10176.81878739
Element set:    0219
Inclination:      098.3113 deg
RA of node:       183.7929 deg
Eccentricity:    0.0000554
Arg of perigee:   179.9762 deg
Mean anomaly:     180.1403 deg
Mean motion:   14.23180351 rev/day
Decay rate:        4.2e-07 rev/day^2
Epoch rev:           62127
Checksum:              308

Satellite: CO-55
Catalog number: 27844
Epoch time:      10176.89848089
Element set:    0877
Inclination:      098.7084 deg
RA of node:       185.7464 deg
Eccentricity:    0.0010175
Arg of perigee:   140.2926 deg
Mean anomaly:     219.8997 deg
Mean motion:   14.20714603 rev/day
Decay rate:        5.3e-07 rev/day^2
Epoch rev:           36232
Checksum:              343

